| time (UTC) | temp C | wind direction | speed KPH | gust KPH | rain 1hr cm | rain 24hr cm | rain mn cm | humidity % | barometer mb |
| 20260505010203 | 12 | 330 | 4.8 | 0.0 | 0.00 | 0.00 | 0.00 | 87 | 1010.0 |
| 20260505003203 | 13 | 350 | 4.8 | 0.0 | 0.00 | 0.00 | 0.00 | 82 | 1010.0 |
| 20260505001802 | 13 | 50 | 8.0 | 0.0 | 0.00 | 0.00 | 0.00 | 76 | |
| 20260505000204 | 13 | 70 | 8.0 | 0.0 | 0.00 | 0.00 | 0.00 | 82 | 1010.0 |
| 20260504233203 | 13 | 110 | 12.9 | 0.0 | 0.00 | 0.00 | 0.00 | 82 | 1011.0 |
| 20260504231805 | 16 | 120 | 19.3 | 0.0 | 0.00 | 0.00 | 0.00 | 67 | |
| 20260504230202 | 15 | 120 | 16.1 | 0.0 | 0.00 | 0.00 | 0.00 | 77 | 1011.0 |
| 20260504224402 | 15 | 130 | 24.1 | 0.0 | 0.00 | 0.00 | 0.00 | 82 | 1011.0 |
| 20260504223202 | 15 | 130 | 29.0 | 0.0 | 0.00 | 0.00 | 0.00 | 77 | 1012.0 |
| 20260504221809 | 15 | 250 | 8.0 | 0.0 | 0.00 | 0.00 | 0.00 | 67 | |
| 20260504221802 | 16 | 160 | 14.5 | 0.0 | 0.00 | 0.00 | 0.00 | 72 | 1012.0 |
| 20260504220409 | 15 | 210 | 8.0 | 0.0 | 0.00 | 0.00 | 0.00 | 67 | 1012.0 |
| 20260504220201 | 15 | 230 | 4.8 | 0.0 | 0.00 | 0.00 | 0.00 | 67 | 1012.0 |
| 20260504213203 | 15 | 0 | 3.2 | 0.0 | 0.00 | 0.00 | 0.00 | 62 | 1012.0 |
| 20260504211801 | 16 | 10 | 8.0 | 0.0 | 0.00 | 0.00 | 0.00 | 55 | |
| 20260504210204 | 16 | 20 | 8.0 | 0.0 | 0.00 | 0.00 | 0.00 | 59 | 1012.0 |
| 20260504203202 | 16 | 360 | 3.2 | 0.0 | 0.00 | 0.00 | 0.00 | 55 | 1012.0 |
| 20260504201800 | 17 | 100 | 3.2 | 0.0 | 0.00 | 0.00 | 0.00 | 51 | |
| 20260504200202 | 17 | 100 | 9.7 | 0.0 | 0.00 | 0.00 | 0.00 | 51 | 1012.0 |
| 20260504193203 | 17 | 80 | 11.3 | 0.0 | 0.00 | 0.00 | 0.00 | 48 | 1012.0 |
| 20260504191804 | 18 | 70 | 11.3 | 0.0 | 0.00 | 0.00 | 0.00 | 45 | |
| 20260504190203 | 17 | 80 | 9.7 | 0.0 | 0.00 | 0.00 | 0.00 | 52 | 1011.0 |
| 20260504183203 | 17 | 80 | 11.3 | 0.0 | 0.00 | 0.00 | 0.00 | 55 | 1011.0 |
| 20260504181806 | 20 | 80 | 11.3 | 0.0 | 0.00 | 0.00 | 0.00 | 42 | |
| 20260504180202 | 20 | 80 | 8.0 | 0.0 | 0.00 | 0.00 | 0.00 | 45 | 1011.0 |
| 20260504173202 | 20 | 70 | 8.0 | 0.0 | 0.00 | 0.00 | 0.00 | 45 | 1011.0 |
| 20260504171806 | 21 | 70 | 11.3 | 0.0 | 0.00 | 0.00 | 0.00 | 43 | |
| 20260504170203 | 21 | 60 | 9.7 | 0.0 | 0.00 | 0.00 | 0.00 | 43 | 1011.0 |
| 20260504160202 | 22 | 40 | 9.7 | 0.0 | 0.00 | 0.00 | 0.00 | 40 | 1012.0 |
| 20260504150202 | 22 | 30 | 8.0 | 0.0 | 0.00 | 0.00 | 0.00 | 40 | 1012.0 |
| 20260504140203 | 22 | 70 | 4.8 | 0.0 | 0.00 | 0.00 | 0.00 | 35 | 1013.0 |
| 20260504130203 | 22 | 0 | 4.8 | 0.0 | 0.00 | 0.00 | 0.00 | 40 | 1013.0 |
| 20260504120202 | 21 | 0 | 8.0 | 0.0 | 0.00 | 0.00 | 0.00 | 43 | 1014.0 |
| 20260504110203 | 18 | 20 | 9.7 | 0.0 | 0.00 | 0.00 | 0.00 | 45 | 1014.0 |
| 20260504100203 | 18 | 330 | 12.9 | 0.0 | 0.00 | 0.00 | 0.00 | 45 | 1015.0 |
| 20260504081801 | 16 | 360 | 8.0 | 0.0 | 0.00 | 0.00 | 0.00 | 51 | |
| 20260504080203 | 16 | 350 | 8.0 | 0.0 | 0.00 | 0.00 | 0.00 | 55 | 1014.0 |
| 20260504070202 | 13 | 350 | 12.9 | 0.0 | 0.00 | 0.00 | 0.00 | 58 | 1014.0 |
| 20260504060202 | 12 | 290 | 4.8 | 0.0 | 0.00 | 0.00 | 0.00 | 71 | 1014.0 |
| 20260504050203 | 10 | 0 | 3.2 | 0.0 | 0.00 | 0.00 | 0.00 | 76 | 1013.0 |
| 20260504043202 | 11 | 120 | 8.0 | 0.0 | 0.00 | 0.00 | 0.00 | 71 | 1013.0 |
| 20260504041805 | 8 | 340 | 3.2 | 0.0 | 0.00 | 0.00 | 0.00 | 76 | |
| 20260504040203 | 8 | 0 | 0.0 | 0.0 | 0.00 | 0.00 | 0.00 | 76 | 1013.0 |
| 20260504033202 | 10 | 0 | 3.2 | 0.0 | 0.00 | 0.00 | 0.00 | 71 | 1013.0 |
| 20260504031801 | 8 | 310 | 8.0 | 0.0 | 0.00 | 0.00 | 0.00 | 70 | |
| 20260504030203 | 8 | 0 | 3.2 | 0.0 | 0.00 | 0.00 | 0.00 | 76 | 1013.0 |
| 20260504023202 | 8 | 230 | 8.0 | 0.0 | 0.00 | 0.00 | 0.00 | 81 | 1013.0 |
| 20260504021805 | 11 | 220 | 3.2 | 0.0 | 0.00 | 0.00 | 0.00 | 66 | |
| 20260504020203 | 11 | 250 | 3.2 | 0.0 | 0.00 | 0.00 | 0.00 | 66 | 1013.0 |
| 20260504013202 | 12 | 80 | 4.8 | 0.0 | 0.00 | 0.00 | 0.00 | 62 | 1013.0 |
| 20260504011801 | 13 | 80 | 8.0 | 0.0 | 0.00 | 0.00 | 0.00 | 54 |